Island Park, ID (83429)

10:53 AM MDT on April 25, 2017 (GMT -0600)
Yale Creek Cabin | | Change Station

Elev 6470 ft 44.48 °N, 111.44 °W | Updated 14 seconds ago

Overcast
Overcast
41.9 °F
Feels Like 42 °F
N
0.0
Wind Variable Wind from SSW

Today
High -- | Low -- °F
--% Chance of Precip.
Yesterday
High -- | Low -- °F
Precip. -- in
Pressure 29.75 in
Visibility 10.0 miles
Clouds Scattered Clouds 1500 ft
Scattered Clouds 1900 ft
Overcast 7000 ft
Windchill 42 °F
Dew Point 35 °F
Humidity 79%
Rainfall 0.11 in
Snow Depth Not available.
6:24 AM 8:22 PM
Waning Crescent, 1% visible
METAR KWYS 251630Z AUTO 00000KT 10SM SCT015 SCT019 OVC070 03/00 A2975 RMK AO2
Pressure 29.75 in
Visibility 10.0 miles
Clouds Scattered Clouds 1500 ft
Scattered Clouds 1900 ft
Overcast 7000 ft
Windchill 42 °F
Dew Point 35 °F
Humidity 79%
Rainfall 0.11 in
Snow Depth Not available.
6:24 AM 8:22 PM
Waning Crescent, 1% visible
METAR KWYS 251630Z AUTO 00000KT 10SM SCT015 SCT019 OVC070 03/00 A2975 RMK AO2

Get Severe Weather Alerts

Thanks for signing up!

Be on the lookout for a verification email in your inbox.

You'll start receiving the daily forecast at 8 AM.

×

10-Day Weather Forecast

Almanac

Astronomy

Apr. 25, 2017 Rise Set
Actual Time
Civil Twilight
Nautical Twilight
Astronomical Twilight
Moon
Length of Visible Light
Length of Day
Tomorrow will be .
, % of the Moon is Illuminated

Today's Extremes

State Highs State Lows

Community

WunderPhotos

WunderBlog® & News

Nearby

Air Quality

  Air Quality AQ Index Pollutant
Not available.

Snow Depth

Station Depth Elevation

Earthquake Activity

City Distance Mag. Time & Date
Minimum magnitude displayed is 2.5.

Coastal Water Temperatures

Place Temperature

Stations

Nearby Weather Stations

Station Location Temp. Windchill Dew Point Humidity Wind Precip. Elev Updated Type
                   

Watches & Warnings

There are currently no watches in effect.